Location: downtown San Diego
(32.7310°N, 117.1990°W)
Time: 19:04:08
(UTC-07:00)

Thor Agena Rocket - Pass Details

Date: 14 June 2018
Orbit: 759 x 808 km, 99.1° (Epoch: 18 August)

Event Time Altitude Azimuth Distance (km) Brightness Sun altitude
Rises 20:56:16 0° 6° (N) 3,274 7.2 -11.1°
Reaches altitude 10° 20:58:39 10° 2° (N) 2,335 6.5 -11.5°
Maximum altitude 21:03:36 50° 288° (WNW) 973 4.5 -12.3°
Drops below altitude 10° 21:08:28 10° 213° (SSW) 2,295 5.9 -13.1°
Sets 21:10:48 0° 208° (SSW) 3,213 6.6 -13.5°
